User: anonymous   Login
Location: Newark
(48.8481°N, 20.9372°E)
Time: 01:44:09
(UTC+00:00)
Language:

DELFI C3 - Orbit

View from above orbital plane
View from above orbital plane
View from above satellite
View from above satellite

Ground track
Ground track

The orbit data is extracted from the following two-line orbital elements,

1 32789U 08021G   20093.60627004  .00001622  00000-0  11058-3 0  9998
2 32789  97.4275 139.0315 0011414 208.6249 151.4354 15.07560354650481
Epoch (UTC): 02 April 2020 14:33:01
Eccentricity: 0.0011414
inclination: 97.4275°
perigee height: 536 km
apogee height: 551 km
right ascension of ascending node: 139.0315°
argument of perigee: 208.6249°
revolutions per day: 15.07560354
mean anomaly at epoch: 151.4354°
orbit number at epoch: 65048

The dashed part of the orbit path shows where the satellite is in the earth's shadow,  

DLR